Home > Weather > Orai > Past weeks

Flag for India Past Weather in Orai, Uttar Pradesh, India — Yesterday and Last 2 Weeks

Now
97 °F

Haze.


Feels Like: 102 °F
Forecast: 91 / 110 °F
Wind: 5 mph from West

Location: Lucknow / Amausi

Current Time: May 31, 2016 at 7:53:47 PM

Latest Report: May 31, 2016 at 7:00 PM


Visibility: 3 mi

Pressure: 29.56 "Hg

Humidity: 39%

Dew Point: 68 °F

Location of OraiLocation

Past Weather in Orai — Graph

°F

Orai Temperature Yesterday

Maximum temperature yesterday: 99 °F (at 2:00 PM)
Minimum temperature yesterday: 79 °F (at 5:30 AM)
Average temperature yesterday: 90 °F

High & Low Weather Summary for the Past Weeks

 TemperatureHumidityPressure
High115 °F (May 17, 3:00 PM)100% (May 22, 9:00 AM)29.77 "Hg (May 22, 9:00 AM)
Low72 °F (May 29, 3:00 AM)13% (May 17, 3:00 PM)29.39 "Hg (May 17, 6:30 PM)
Average93 °F53%29.52 "Hg
* Reported May 16 6:30 PM — May 31 6:30 PM, Orai, Weather by CustomWeather, © 2016

Note: Actual official high and low records may vary slightly from our data, if they occured in-between our weather recording intervals... More about our weather records

Advertising

Orai Weather History for the Previous 24 Hours

Scroll right to see more
 ConditionsComfort  
Time TempWeatherWind HumidityBarometerVisibility
6:30 PM
Tue, May 31
99 °FHaze.6 mph37%29.53 "Hg3 mi
6:00 PM100 °FHaze.8 mph33%29.53 "Hg3 mi
5:00 PM104 °FHaze.12 mph31%29.53 "Hg3 mi
4:30 PM104 °FHaze.12 mph29%29.56 "Hg3 mi
4:00 PM104 °FScattered clouds.6 mph33%29.56 "Hg3 mi
3:30 PM104 °FScattered clouds.6 mph35%29.56 "Hg3 mi
3:00 PM104 °FScattered clouds.7 mph38%29.56 "Hg3 mi
2:30 PM104 °FBroken clouds.7 mph38%29.59 "Hg3 mi
2:00 PM102 °FBroken clouds.8 mph42%29.62 "Hg3 mi
1:00 PM102 °FBroken clouds.7 mph40%29.62 "Hg3 mi
12:30 PM102 °FBroken clouds.2 mph40%29.62 "Hg3 mi
12:00 PM102 °FScattered clouds.2 mph42%29.65 "Hg3 mi
11:30 AM99 °FScattered clouds.2 mph44%29.65 "Hg2 mi
11:00 AM99 °FScattered clouds.3 mph47%29.65 "Hg2 mi
10:00 AM97 °FHaze.2 mph50%29.68 "Hg2 mi
9:30 AM95 °FHaze.6 mph53%29.65 "Hg2 mi
9:00 AM93 °FHaze.6 mph56%29.65 "Hg2 mi
8:30 AM90 °FHaze.5 mph63%29.65 "Hg2 mi
8:00 AM90 °FHaze.5 mph59%29.65 "Hg2 mi
7:30 AM86 °FHaze.5 mph66%29.65 "Hg2 mi
7:00 AM84 °FHaze.No wind74%29.62 "Hg2 mi
6:30 AM84 °FHaze.No wind74%29.62 "Hg2 mi
6:00 AM82 °FHaze.No wind79%29.62 "Hg2 mi
5:30 AM82 °FHaze.No wind79%29.59 "Hg2 mi
5:00 AM82 °FHaze.No wind79%29.59 "Hg2 mi
4:00 AM82 °FHaze.No wind79%29.59 "Hg2 mi
3:00 AM82 °FHaze.No wind79%29.56 "Hg2 mi
2:00 AM84 °FHaze.No wind70%29.56 "Hg2 mi
1:00 AM84 °FHaze.No wind74%29.59 "Hg2 mi
12:00 AM86 °FHaze.No wind66%29.59 "Hg2 mi
11:00 PM
Mon, May 30
86 °FHaze.No wind70%29.59 "Hg2 mi
10:00 PM88 °FHaze.No wind66%29.59 "Hg2 mi
9:00 PM90 °FPassing clouds.No wind59%29.59 "Hg2 mi
8:30 PM91 °FPassing clouds.No wind56%29.59 "Hg2 mi
8:00 PM91 °FPartly cloudy.No wind56%29.59 "Hg3 mi
7:30 PM93 °FPartly cloudy.3 mph53%29.59 "Hg3 mi
7:00 PM95 °FBroken clouds.No wind47%29.59 "Hg3 mi
Weather by CustomWeather, © 2016

See weather overviewHow to use our weather pages